Date String (YYYY-MM-DD hh:mm:ss) UTC,Instrument flags,Ambient pressure (hPa),Sample flow (lpm),Bypass flow (lpm),Sample temperature (°C),Ambient temperature (°C),ASC tube jacket temperature (°C),LED temperature (°C),Box temperature (°C),Sample RH (%),Span deviation,Mass concentration (μg/m³),Mass concentration (μg/m³),Mass concentration (μg/m³)
DateTimeUTC,F1_M11,P_M11,Q1_M11,Q2_M11,T1_M11,T2_M11,T3_M11,T4_M11,T5_M11,U1_M11,ZSPAN_M11,X0_M11,X2_M11,X1_M11
2022-10-15 05:00:00,,0825.1,5.01,0.00,30.0,28.5,00.0,38.8,31.7,06.6,0000.0,0008.23,0002.82,0002.23
2022-10-15 05:01:00,,0825.0,4.99,0.00,30.0,28.5,00.0,38.8,31.7,06.6,0000.0,0007.98,0002.76,0002.22
2022-10-15 05:02:00,,0825.0,5.02,0.00,29.9,28.5,00.0,38.8,31.7,06.6,0000.0,0007.65,0002.77,0002.24
2022-10-15 05:03:00,,0825.0,4.99,0.00,29.9,28.4,00.0,38.8,31.7,06.6,0000.0,0007.33,0002.80,0002.24
2022-10-15 05:04:00,,0825.1,5.01,0.00,29.9,28.4,00.0,38.8,31.7,06.6,0000.0,0007.39,0002.85,0002.25
2022-10-15 05:05:00,,0825.0,5.00,0.00,29.9,28.4,00.0,38.8,31.7,06.6,0000.0,0007.38,0002.83,0002.25
2022-10-15 05:06:00,,0825.0,5.01,0.00,29.9,28.4,00.0,38.8,31.6,06.6,0000.0,0007.38,0002.82,0002.25
2022-10-15 05:07:00,,0824.9,4.99,0.00,29.9,28.4,00.0,38.8,31.7,06.6,0000.0,0006.65,0002.80,0002.24
2022-10-15 05:08:00,,0824.9,4.99,0.00,29.9,28.4,00.0,38.8,31.7,06.6,0000.0,0005.40,0002.76,0002.24
2022-10-15 05:09:00,,0824.9,5.02,0.00,29.9,28.4,00.0,38.8,31.7,06.8,0000.0,0005.21,0002.72,0002.22
2022-10-15 05:10:00,,0825.0,4.99,0.00,29.9,28.4,00.0,38.8,31.7,06.8,0000.0,0004.89,0002.69,0002.22
2022-10-15 05:11:00,,0824.9,4.99,0.00,29.9,28.4,00.0,38.8,31.7,06.7,0000.0,0004.76,0002.68,0002.22
2022-10-15 05:12:00,,0824.9,5.01,0.00,29.9,28.4,00.0,38.8,31.7,06.7,0000.0,0004.77,0002.71,0002.22
2022-10-15 05:13:00,,0824.9,4.99,0.00,29.9,28.4,00.0,38.8,31.7,06.7,0000.0,0004.95,0002.73,0002.21
2022-10-15 05:14:00,,0825.0,5.00,0.00,29.9,28.4,00.0,38.8,31.7,06.7,0000.0,0005.00,0002.71,0002.21
2022-10-15 05:15:00,,0824.9,5.00,0.00,29.9,28.4,00.0,38.8,31.6,06.7,0000.0,0004.84,0002.64,0002.19
2022-10-15 05:16:00,,0824.9,5.00,0.00,29.9,28.3,00.0,38.8,31.6,06.7,0000.0,0004.85,0002.62,0002.19
2022-10-15 05:17:00,,0824.9,5.01,0.00,29.9,28.3,00.0,38.8,31.7,06.7,0000.0,0004.97,0002.61,0002.18
2022-10-15 05:18:00,,0825.0,4.98,0.00,29.9,28.3,00.0,38.8,31.7,06.7,0000.0,0005.13,0002.63,0002.19
2022-10-15 05:19:00,,0825.0,5.01,0.00,29.9,28.3,00.0,38.8,31.6,06.7,0000.0,0005.17,0002.70,0002.20
2022-10-15 05:20:00,,0825.0,4.99,0.00,29.9,28.3,00.0,38.8,31.6,06.6,0000.0,0004.78,0002.72,0002.22
2022-10-15 05:21:00,,0825.1,4.99,0.00,29.9,28.3,00.0,38.8,31.7,06.6,0000.0,0004.48,0002.72,0002.22
2022-10-15 05:22:00,,0825.0,5.01,0.00,29.9,28.3,00.0,38.8,31.6,06.8,0000.0,0004.36,0002.69,0002.23
2022-10-15 05:23:00,,0825.0,4.99,0.00,29.9,28.3,00.0,38.7,31.6,06.7,0000.0,0004.29,0002.69,0002.23
2022-10-15 05:24:00,,0825.0,5.02,0.00,29.9,28.3,00.0,38.8,31.7,06.7,0000.0,0004.46,0002.64,0002.23
2022-10-15 05:25:00,,0825.0,4.99,0.00,29.9,28.3,00.0,38.8,31.7,06.7,0000.0,0005.01,0002.64,0002.22
2022-10-15 05:26:00,,0825.0,4.99,0.00,29.9,28.3,00.0,38.7,31.6,06.8,0000.0,0005.18,0002.67,0002.21
2022-10-15 05:27:00,,0825.0,5.01,0.00,29.9,28.3,00.0,38.7,31.6,06.8,0000.0,0005.27,0002.71,0002.22
2022-10-15 05:28:00,,0825.0,4.99,0.00,29.9,28.3,00.0,38.7,31.6,06.8,0000.0,0005.38,0002.73,0002.23
2022-10-15 05:29:00,,0825.0,5.02,0.00,29.9,28.3,00.0,38.7,31.6,06.8,0000.0,0005.26,0002.69,0002.22
2022-10-15 05:30:00,,0825.0,4.98,0.00,29.9,28.3,00.0,38.7,31.6,06.8,0000.0,0005.34,0002.65,0002.22
2022-10-15 05:31:00,,0825.0,5.02,0.00,29.9,28.3,00.0,38.7,31.6,06.8,0000.0,0006.52,0002.68,0002.21
2022-10-15 05:32:00,,0825.0,5.00,0.00,29.9,28.3,00.0,38.7,31.6,06.8,0000.0,0007.04,0002.77,0002.23
2022-10-15 05:33:00,,0825.0,4.99,0.00,29.9,28.3,00.0,38.7,31.6,06.9,0000.0,0007.32,0002.86,0002.24
2022-10-15 05:34:00,,0825.0,5.01,0.00,29.9,28.3,00.0,38.7,31.6,06.9,0000.0,0007.54,0002.93,0002.27
2022-10-15 05:35:00,,0825.0,4.99,0.00,29.9,28.3,00.0,38.7,31.6,06.8,0000.0,0007.51,0003.00,0002.29
2022-10-15 05:36:00,,0825.0,5.01,0.00,29.8,28.3,00.0,38.7,31.5,06.8,0000.0,0007.34,0003.00,0002.31
2022-10-15 05:37:00,,0824.9,4.99,0.00,29.8,28.3,00.0,38.7,31.5,06.8,0000.0,0007.30,0003.01,0002.33
2022-10-15 05:38:00,,0824.9,5.00,0.00,29.8,28.3,00.0,38.7,31.6,06.8,0000.0,0007.35,0003.04,0002.34
2022-10-15 05:39:00,,0824.9,5.01,0.00,29.9,28.3,00.0,38.7,31.6,06.8,0000.0,0007.35,0003.05,0002.35
2022-10-15 05:40:00,,0824.9,4.99,0.00,29.9,28.3,00.0,38.7,31.6,06.8,0000.0,0007.94,0003.14,0002.37
2022-10-15 05:41:00,,0824.9,5.01,0.00,29.9,28.3,00.0,38.7,31.6,06.8,0000.0,0007.93,0003.17,0002.38
2022-10-15 05:42:00,,0824.9,4.99,0.00,29.9,28.3,00.0,38.7,31.7,06.7,0000.0,0007.52,0003.18,0002.39
2022-10-15 05:43:00,,0824.9,4.99,0.00,29.9,28.3,00.0,38.7,31.6,06.8,0000.0,0008.37,0003.15,0002.38
2022-10-15 05:44:00,,0824.9,5.01,0.00,29.9,28.4,00.0,38.7,31.6,06.8,0000.0,0008.40,0003.13,0002.37
2022-10-15 05:45:00,,0824.9,4.99,0.00,29.9,28.4,00.0,38.7,31.6,06.9,0000.0,0008.33,0003.11,0002.36
2022-10-15 05:46:00,,0824.9,5.00,0.00,29.9,28.3,00.0,38.7,31.6,06.9,0000.0,0008.16,0003.06,0002.34
2022-10-15 05:47:00,,0824.9,5.00,0.00,29.9,28.3,00.0,38.7,31.6,06.9,0000.0,0008.16,0003.12,0002.34
2022-10-15 05:48:00,,0824.9,5.01,0.00,29.9,28.3,00.0,38.7,31.6,06.9,0000.0,0008.33,0003.14,0002.33
2022-10-15 05:49:00,,0824.9,4.99,0.00,29.9,28.3,00.0,38.7,31.6,06.9,0000.0,0009.04,0003.12,0002.32
2022-10-15 05:50:00,,0824.9,5.01,0.00,29.8,28.2,00.0,38.7,31.5,06.9,0000.0,0009.20,0003.12,0002.31
2022-10-15 05:51:00,,0824.9,4.99,0.00,29.8,28.2,00.0,38.7,31.5,06.9,0000.0,0008.66,0003.06,0002.30
2022-10-15 05:52:00,,0824.9,4.99,0.00,29.8,28.2,00.0,38.7,31.5,06.9,0000.0,0008.57,0003.00,0002.29
2022-10-15 05:53:00,,0824.9,5.01,0.00,29.8,28.2,00.0,38.7,31.5,06.9,0000.0,0008.54,0002.98,0002.29
2022-10-15 05:54:00,,0824.9,4.98,0.00,29.8,28.1,00.0,38.7,31.5,06.9,0000.0,0007.46,0003.02,0002.29
2022-10-15 05:55:00,,0824.9,5.01,0.00,29.8,28.1,00.0,38.7,31.5,06.9,0000.0,0007.13,0003.00,0002.29
2022-10-15 05:56:00,,0824.8,4.99,0.00,29.8,28.2,00.0,38.7,31.5,06.9,0000.0,0006.97,0002.97,0002.28
2022-10-15 05:57:00,,0824.9,5.01,0.00,29.8,28.1,00.0,38.7,31.5,06.9,0000.0,0006.98,0002.99,0002.30
2022-10-15 05:58:00,,0824.9,5.00,0.00,29.8,28.1,00.0,38.7,31.5,06.9,0000.0,0007.06,0003.01,0002.30
2022-10-15 05:59:00,,0824.8,4.99,0.00,29.8,28.1,00.0,38.7,31.5,06.9,0000.0,0006.86,0002.98,0002.31
